Location: Cicognara
(44.9500°N, 10.4667°E)
Time: 23:37:49
(UTC+00:00)

Cosmos 2297 - Pass Details

Date: 20 June 2021
Orbit: 836 x 858 km, 71.0° (Epoch: 23 July)

Event Time Altitude Azimuth Distance (km) Brightness Sun altitude
Rises 22:56:16 0° 334° (NNW) 3,399 8.1 -21.4°
Reaches altitude 10° 22:58:43 10° 335° (NNW) 2,462 7.1 -21.4°
Maximum altitude 23:04:23 86° 65° (ENE) 849 3.6 -21.5°
Enters shadow 23:06:22 43° 152° (SSE) 1,173 4.0 -21.5°
